Tracking 34408 objects as of 14-Jun-2026
HD Live streaming from Space Station
objects crossing your sky now

CZ-4C DEB

Track CZ-4C DEB now!
10-day predictions


NORAD ID: 43628
Int'l Code: 2013-065F
Perigee: 638.1 km
Apogee: 821.6 km
Inclination: 100.5 °
Period: 99.2 minutes
Semi major axis: 7100 km
RCS: Unknown
Launch date: November 20, 2013
Source: People's Republic of China (PRC)
Launch site: Taiyaun Space Center, China (TSC)

Note: This is SATELLITE DEBRIS
Your satellite tracking list
Your tracking list is empty




NASA's NSSDC Master Catalog

Two Line Element Set (TLE):
1 43628U 13065E   26164.92330225  .00011332  00000-0  25887-2 0  9995
2 43628 100.5217 155.8199 0129219 156.4333 204.2848 14.50902698403669
Source of the keplerian elements: AFSPC